Inquirer Daily News

Weather

Get conditions and forecasts for any City, State, ZIP code or Country:  
Northeast Philadelphia, PA
on Saturday, November 24, 2012

Saturday
Previous Day Next Day
Daily Summary
 ActualAverage (KTTN)Record (KTTN)
Temperature
Mean Temperature °F 43°F  
Max Temperature 48°F 51°F 71°F (1979)
Min Temperature 36°F 35°F 16°F (1989)
Degree Days
Heating Degree Days 23 22  
Month to date heating degree days 440  
Since 1 July heating degree days 837  
Cooling Degree Days 0 0  
Month to date cooling degree days 0  
Year to date cooling degree days 965  
Growing Degree Days0 (Base °F )  
Moisture
Dew Point 21°F   
Average Humidity 47    
Maximum Humidity 57    
Minimum Humidity 40    
Precipitation
Precipitation 0.00 in 0.11 in 2.10 in (1901)
Month to date precipitation 2.53  
Year to date precipitation 41.96  
Wind
Wind Speed 15 mph   
Max Wind Speed 20 mph   
Max Gust Speed 32 mph   
Visibility 10 miles   
Events     

Key: T is trace of precipitation, MM is missing value
Source: NWS Daily Summary
Time(EST)TemperatureDew PointHumidity Pressure Visibility Wind DirectionWind SpeedGust SpeedPrecipitationEvents Conditions
12:54 AM 48.2°F 28.4°F 46% 29.74 in 10.0 miles West 13.8 mph - N/A   Mostly Cloudy
1:54 AM 44.1°F 26.1°F 49% 29.78 in 10.0 miles WNW 16.1 mph 23.0 mph N/A   Mostly Cloudy
2:54 AM 41.0°F 21.0°F 45% 29.80 in 10.0 miles NW 15.0 mph 31.1 mph N/A   Scattered Clouds
3:54 AM 39.0°F 21.9°F 50% 29.80 in 10.0 miles WNW 16.1 mph 26.5 mph N/A   Clear
4:54 AM 37.9°F 21.9°F 53% 29.81 in 10.0 miles WNW 13.8 mph 23.0 mph N/A   Clear
5:54 AM 36.0°F 21.9°F 57% 29.84 in 10.0 miles West 13.8 mph 18.4 mph N/A   Clear
6:54 AM 37.0°F 21.0°F 52% 29.85 in 10.0 miles West 12.7 mph 20.7 mph N/A   Partly Cloudy
7:54 AM 37.9°F 21.0°F 51% 29.85 in 10.0 miles WNW 16.1 mph 23.0 mph N/A   Clear
8:54 AM 39.9°F 21.0°F 47% 29.86 in 10.0 miles WNW 18.4 mph 25.3 mph N/A   Clear
9:54 AM 41.0°F 21.0°F 45% 29.86 in 10.0 miles WNW 18.4 mph 23.0 mph N/A   Scattered Clouds
10:54 AM 43.0°F 19.9°F 40% 29.85 in 10.0 miles NW 19.6 mph 32.2 mph N/A   Mostly Cloudy
11:54 AM 42.1°F 19.0°F 40% 29.83 in 10.0 miles NW 17.3 mph 25.3 mph N/A   Overcast
12:54 PM 41.0°F 19.9°F 43% 29.82 in 10.0 miles WNW 13.8 mph 23.0 mph N/A   Overcast
1:54 PM 42.1°F 19.0°F 40% 29.82 in 10.0 miles WNW 16.1 mph 29.9 mph N/A   Overcast
2:54 PM 42.1°F 19.0°F 40% 29.82 in 10.0 miles WNW 18.4 mph 28.8 mph N/A   Overcast
3:54 PM 39.9°F 19.0°F 43% 29.83 in 10.0 miles WNW 16.1 mph 23.0 mph N/A   Partly Cloudy
4:54 PM 39.9°F 19.0°F 43% 29.85 in 10.0 miles West 17.3 mph 24.2 mph N/A   Mostly Cloudy
5:54 PM 39.0°F 19.9°F 46% 29.87 in 10.0 miles WNW 12.7 mph - N/A   Overcast
6:54 PM 39.0°F 19.9°F 46% 29.89 in 10.0 miles WNW 15.0 mph 21.9 mph N/A   Overcast
7:54 PM 37.9°F 21.0°F 51% 29.90 in 10.0 miles WNW 11.5 mph 19.6 mph N/A   Overcast
8:54 PM 37.0°F 19.9°F 50% 29.91 in 10.0 miles WNW 10.4 mph 18.4 mph N/A   Partly Cloudy
9:54 PM 37.9°F 19.9°F 48% 29.92 in 10.0 miles WNW 10.4 mph 17.3 mph N/A   Overcast
10:54 PM 37.0°F 19.0°F 48% 29.94 in 10.0 miles West 12.7 mph 20.7 mph N/A   Overcast
11:54 PM 36.0°F 19.0°F 50% 29.94 in 10.0 miles West 11.5 mph - N/A   Mostly Cloudy
Astronomy
Sunrise:06:56 AM (EST) Moon Rise:02:21 PM (EST)
Sunset:04:37 PM (EST) Moon Set:03:10 AM (EST)
Moon Phase
Nov. 24 Nov. 28 Dec. 06 Dec. 13 Dec. 20

Copyright © 2014 The Weather Underground, Inc.